Location: Cartignies
(50.0929°N, 3.8447°E)
Time: 14:10:11
(UTC+00:00)

COSMOS 2455 - Pass Details

Date: 12 January 2026
Orbit: 899 x 909 km, 67.1° (Epoch: 15 February)

Event Time Altitude Azimuth Distance (km) Brightness Sun altitude
Rises 17:41:49 0° 318° (NW) 3,548 6.3 -14.6°
Reaches altitude 10° 17:45:03 10° 335° (NNW) 2,605 5.4 -15.1°
Maximum altitude 17:49:29 21° 22° (NNE) 1,950 4.3 -15.8°
Enters shadow 17:51:04 19° 43° (NE) 2,045 4.2 -16.1°
